Regional Weather Roundup
Issued by NWS Raleigh/Durham, NC

Home | Current Version | Previous Version | Text Only | Print | Product List | Glossary On
Versions: 1 2 3 4 5 6 7 8 9 10 11 12 13 14 15 16 17 18 19 20 21 22 23 24 25 26 27
000
ASUS42 KRAH 221310
RWRRAH
NORTH CAROLINA WEATHER ROUNDUP
NATIONAL WEATHER SERVICE RALEIGH NC
800 AM EST WED NOV 22 2017

NOTE: "FAIR" INDICATES FEW OR NO CLOUDS BELOW 12,000 FEET WITH NO
SIGNIFICANT WEATHER AND/OR OBSTRUCTIONS TO VISIBILITY.

NCZ001-053-055-056-065-067-221400-
WESTERN NORTH CAROLINA

CITY           SKY/WX    TMP DP  RH WIND       PRES   REMARKS
ASHEVILLE      CLEAR     46  34  62 N13G21    30.06R
JEFFERSON      CLEAR     40  31  70 NW12G22   30.01R WCI  32
MORGANTON      CLEAR     43  43 100 W6        30.05R
HICKORY        CLEAR     43  41  93 NW8       30.01R
RUTHERFORDTON  CLEAR     44  44 100 N5        30.02R
MOUNT AIRY     PTCLDY    46  39  76 NW5       30.03R
BOONE          CLEAR     41  31  67 NW9G20    30.03R
$$

NCZ021-022-025-041-071-084-088-221400-
CENTRAL NORTH CAROLINA

CITY           SKY/WX    TMP DP  RH WIND       PRES   REMARKS
CHARLOTTE      PTCLDY    47  47 100 CALM      30.01R
GREENSBORO     MOCLDY    51  46  83 NW8       29.99R
WINSTON-SALEM  PTCLDY    48  44  86 NW7       30.01R
RALEIGH-DURHAM PTCLDY    51  51 100 CALM      29.97R
FORT BRAGG     CLOUDY    54  53  99 NW5       29.96R
FAYETTEVILLE   PTSUNNY   55  55 100 NW6       29.96R
BURLINGTON     CLOUDY    52  50  93 NW6       29.98R
LAURINBURG     CLOUDY    54  54 100 NW8       29.99R FOG
$$

NCZ011-015-027-028-043-044-047-080-103-221400-
NORTHEASTERN NORTH CAROLINA

CITY           SKY/WX    TMP DP  RH WIND       PRES   REMARKS
ROCKY MT-WILSO CLOUDY    54  54 100 NW6       29.94R
GREENVILLE     MOSUNNY   55  54  94 CALM      29.95R
WASHINGTON     CLOUDY    56  56  97 NW6       29.92S
ELIZABETH CITY CLOUDY    59  59 100 CALM      29.91R FOG
MANTEO         SUNNY     58  58  98 CALM      29.90S
CAPE HATTERAS  SUNNY     60  60 100 CALM      29.89R
$$

NCZ078-087-090-091-093-098-101-221400-
SOUTHEASTERN NORTH CAROLINA

CITY           SKY/WX    TMP DP  RH WIND       PRES   REMARKS
LUMBERTON      MOSUNNY   54  54 100 W3        29.97R FOG
GOLDSBORO      PTSUNNY   57  53  86 W3        29.92R
KINSTON        MOSUNNY   55  54  94 NW3       29.94R
KENANSVILLE    CLOUDY    55  54  94 N3        29.94R
NEW BERN       PTSUNNY   57  57 100 NW5       29.93R
CHERRY POINT   NOT AVBL
BEAUFORT       FOG       58  58 100 CALM      29.91S VSB<1/4
JACKSONVILLE   NOT AVBL
WILMINGTON     PTSUNNY   60  60 100 W7        29.94R
$$





USA.gov is the U.S. government's official web portal to all federal, state and local government web resources and services.